[[{"header":{"parameterUnit":"m.s-1","parameterCategory":1,"la1":30.2991,"la2":30.254,"lo1":-89.0895,"lo2":-89.0444,"dy":0.0017,"dx":0.0017,"nx":28,"ny":28,"refTime":"2024-05-04T09:00:00:Z","depth":0,"parameterNumber":2,"parameterNumberName":"U-component_of_WINDS"},"data":[0,0,0,0,0,0,0,0,0,0,0,0,0,0,0,0,0,0,0,0,0,0,0,0,0,0,0,0,0,0,0,0,0,0,0,0,0,0,0,0,0,0,0,0,0,0,0,0,0,0,0,0,0,0,0,0,0,0,-3.2826,-3.2825,0,-3.2786,-3.2786,-3.2785,-3.268,-3.2677,-3.2675,-3.2673,-3.2635,-3.2637,-3.2638,0,0,0,0,0,0,0,0,0,0,0,0,0,-3.2814,-3.2814,-3.2826,-3.2825,-3.2825,-3.2786,-3.2786,-3.2785,-3.268,-3.2677,-3.2674,-3.2672,-3.2635,-3.2636,-3.2638,0,0,0,0,0,0,0,0,0,0,0,0,0,-3.2801,-3.2815,-3.2826,-3.2768,-3.2762,-3.2787,-3.2786,-3.2785,-3.2681,-3.2677,-3.2674,-3.2671,-3.2635,-3.2636,-3.2638,-3.2717,0,0,-3.2643,-3.2644,0,0,0,0,0,0,0,0,-3.2802,-3.2802,-3.2777,-3.2772,-3.2765,-3.2734,-3.2768,-3.2762,-3.2681,-3.2712,-3.2673,-3.2669,-3.2671,-3.267,-3.267,-3.2715,-3.2713,-3.2643,-3.2644,-3.2645,-3.2645,0,0,0,0,0,0,0,-3.2803,-3.2803,-3.281,-3.2776,-3.277,-3.2745,-3.2739,-3.2766,-3.2711,-3.2709,-3.2701,-3.2698,-3.2668,-3.2669,-3.2668,-3.2713,-3.2643,-3.2645,-3.2646,-3.2646,-3.2822,-3.2825,0,0,0,0,0,0,-3.2812,-3.2804,-3.2811,-3.2809,-3.2776,-3.2748,-3.2741,-3.2748,-3.2711,-3.2702,-3.27,-3.2693,-3.2667,-3.2666,-3.2667,-3.2757,-3.2645,-3.2647,-3.2648,-3.2818,-3.2823,-3.2827,0,0,0,0,0,0,-3.2812,-3.2813,-3.2813,-3.2805,-3.2803,-3.2751,-3.276,-3.2749,-3.275,-3.2704,-3.2694,-3.2711,-3.2665,-3.2664,-3.2705,-3.2754,-3.2647,-3.2649,-3.2814,-3.282,-3.2825,-3.2938,0,0,0,0,0,0,-3.2812,-3.2814,-3.2843,-3.2806,-3.2803,-3.2852,-3.2762,-3.2751,-3.2752,-3.2742,-3.2712,-3.2704,-3.2662,-3.2703,-3.2707,-3.2754,-3.265,-3.2809,-3.2817,-3.2823,-3.293,-3.2946,-3.2961,0,0,0,0,0,-3.2812,-3.2876,-3.2845,-3.2846,-3.2838,-3.2855,-3.2853,-3.2803,-3.2757,-3.2786,-3.2757,-3.2705,-3.2748,-3.2708,-3.2711,-3.276,-3.2806,-3.2814,-3.2822,-3.2922,-3.2943,-3.2961,0,0,0,0,0,0,-3.2921,-3.287,-3.2835,-3.2889,-3.2877,-3.2837,-3.2871,-3.2826,-3.2828,-3.2818,-3.2757,-3.2751,-3.2801,-3.2784,-3.2741,-3.2835,-3.2769,-3.2778,-3.2844,-3.2863,-3.2878,-3.2881,-3.2652,0,0,0,0,0,-3.2951,-3.2968,-3.2923,-3.2976,-3.2971,-3.2923,-3.2928,-3.2891,-3.2876,-3.287,-3.2844,-3.2833,-3.2844,-3.2853,-3.286,-3.2927,-3.2919,-3.2962,-3.2978,-3.2991,-3.3,-3.3035,-3.3054,-3.2854,-3.2854,-3.2853,0,0,-3.3014,-3.2988,-3.3003,-3.2997,-3.2983,-3.3003,-3.2919,-3.2943,-3.2958,-3.2874,-3.2911,-3.2892,-3.2876,-3.293,-3.2953,-3.2918,-3.3054,-3.3002,-3.3013,-3.3014,-3.3045,-3.3064,-3.3081,-3.2859,-3.2858,-3.2857,0,0,-3.3138,-3.312,-3.3162,-3.315,-3.313,-3.3097,-3.3108,-3.3075,-3.3059,-3.3095,-3.3033,-3.305,-3.307,-3.3061,-3.3059,-3.3182,-3.3134,-3.3186,-3.3269,-3.3303,-3.3319,-3.3333,-3.3377,-3.3393,-3.3195,-3.3196,-3.3196,0,-3.3219,-3.3245,-3.319,-3.3218,-3.3218,-3.3143,-3.3186,-3.3177,-3.3161,-3.3163,-3.3125,-3.3149,-3.3133,-3.3184,-3.3214,-3.3215,-3.3226,-3.3189,-3.3321,-3.3334,-3.3346,-3.3388,-3.3404,-3.3202,-3.3201,-3.3201,-3.32,0,-3.3345,-3.3365,-3.3401,-3.3387,-3.3391,-3.3427,-3.3378,-3.3389,-3.3352,-3.3324,-3.3363,-3.334,-3.3343,-3.3352,-3.3316,-3.3399,-3.3378,-3.3332,-3.3263,-3.3373,-3.341,-3.3426,-3.3211,-3.3209,-3.3207,-3.3205,0,0,-3.3535,-3.3491,-3.3505,-3.3498,-3.3472,-3.3486,-3.3519,-3.3521,-3.3532,-3.3524,-3.3551,-3.357,-3.3527,-3.3525,-3.3488,-3.3518,-3.3618,-3.3468,-3.3466,-3.3496,-3.3709,-3.3744,-3.3763,-3.3586,-3.3589,-3.3591,-3.371,0,-3.3653,-3.3705,-3.3657,-3.3719,-3.3737,-3.3667,-3.3696,-3.3684,-3.3659,-3.3672,-3.3645,-3.366,-3.3601,-3.36,-3.3627,-3.36,-3.366,-3.3591,-3.3611,-3.3613,-3.3617,-3.3783,-3.3819,-3.3932,-3.3724,-3.3727,-3.3729,0,-3.3796,-3.3794,-3.3858,-3.3828,-3.3834,-3.386,-3.3858,-3.3871,-3.3856,-3.3836,-3.3835,-3.379,-3.3821,-3.3755,-3.3799,-3.3753,-3.3759,-3.3747,-3.375,-3.375,-3.3677,-3.3787,-3.3967,-3.3984,-3.3751,-3.375,-3.3748,0,-3.3928,-3.3942,-3.3982,-3.3978,-3.3944,-3.3965,-3.3952,-3.3934,-3.3938,-3.3937,-3.3939,-3.3943,-3.3945,-3.3949,-3.3906,-3.3862,-3.3956,-3.3886,-3.394,-3.3942,-3.3962,-3.3962,-3.4146,-3.3968,-3.3967,-3.3967,-3.3967,0,-3.4063,-3.4105,-3.4041,-3.4066,-3.4111,-3.4057,-3.4104,-3.4084,-3.4068,-3.4089,-3.403,-3.405,-3.3993,-3.4008,-3.3975,-3.4016,-3.4018,-3.4003,-3.3994,-3.4008,-3.401,-3.4011,-3.4002,-3.3971,-3.397,-3.397,-3.3969,0,-3.4219,-3.4177,-3.4216,-3.4181,-3.4173,-3.4209,-3.4179,-3.4201,-3.4173,-3.42,-3.4203,-3.416,-3.4175,-3.4133,-3.4142,-3.412,-3.418,-3.4158,-3.4184,-3.4178,-3.4235,-3.423,-3.4426,-3.4449,-3.4256,-3.4258,-3.4259,0,-3.4307,-3.4338,-3.4306,-3.4315,-3.4305,-3.4321,-3.4325,-3.4274,-3.4281,-3.4267,-3.4291,-3.4301,-3.4306,-3.4334,-3.4304,-3.4311,-3.4288,-3.4357,-3.4289,-3.4303,-3.4289,-3.4288,-3.4291,-3.4371,-3.4373,-3.4375,-3.4376,0,-3.4469,-3.4448,-3.4455,-3.4457,-3.4463,-3.4462,-3.4457,-3.4468,-3.4413,-3.4424,-3.4438,-3.4443,-3.4452,-3.4463,-3.4463,-3.4451,-3.4405,-3.4398,-3.4411,-3.4426,-3.444,-3.4433,-3.4222,-3.4394,-3.4392,-3.4391,-3.439,-3.4389,-3.4594,-3.4618,-3.46,-3.4611,-3.4601,-3.4598,-3.4617,-3.4592,-3.4603,-3.4605,-3.4575,-3.4596,-3.4582,-3.4577,-3.457,-3.4587,-3.4555,-3.4574,-3.4579,-3.4584,-3.4594,-3.4438,-3.4587,-3.4586,-3.4586,-3.4585,-3.4585,0,-3.4753,-3.4738,-3.4749,-3.4743,-3.4752,-3.4708,-3.47,-3.4711,-3.473,-3.472,-3.4727,-3.4744,-3.4755,-3.4726,-3.4733,-3.4752,-3.4731,-3.4756,-3.4753,-3.4752,-3.4621,-3.4609,-3.4772,-3.4772,-3.4772,-3.4772,-3.4772,-3.4772,-3.4836,-3.4875,-3.4852,-3.4886,-3.4871,-3.489,-3.489,-3.4887,-3.4879,-3.4901,-3.4909,-3.489,-3.4873,-3.4879,-3.4887,-3.4879,-3.4884,-3.4916,-3.49,-3.4779,-3.4761,-3.4743,-3.4731,-3.4917,-3.4917,-3.5028,-3.5029,-3.503]},{"header":{"parameterUnit":"m.s-1","parameterCategory":1,"la1":30.2991,"la2":30.254,"lo1":-89.0895,"lo2":-89.0444,"dy":0.0017,"dx":0.0017,"nx":28,"ny":28,"refTime":"2024-05-04T09:00:00:Z","depth":0,"parameterNumber":3,"parameterNumberName":"V-component_of_WINDS"},"data":[0,0,0,0,0,0,0,0,0,0,0,0,0,0,0,0,0,0,0,0,0,0,0,0,0,0,0,0,0,0,0,0,0,0,0,0,0,0,0,0,0,0,0,0,0,0,0,0,0,0,0,0,0,0,0,0,0,0,0.8029,0.803,0,0.8052,0.8053,0.8053,0.8075,0.8075,0.8075,0.8075,0.8098,0.8099,0.8099,0,0,0,0,0,0,0,0,0,0,0,0,0,0.8004,0.8005,0.8029,0.803,0.803,0.8052,0.8053,0.8053,0.8074,0.8075,0.8075,0.8075,0.8098,0.8099,0.8099,0,0,0,0,0,0,0,0,0,0,0,0,0,0.802,0.8005,0.8029,0.8043,0.8045,0.8052,0.8053,0.8053,0.8074,0.8075,0.8075,0.8076,0.8098,0.8099,0.8099,0.8095,0,0,0.8101,0.8101,0,0,0,0,0,0,0,0,0.8019,0.8021,0.8041,0.8042,0.8044,0.8061,0.8052,0.8067,0.8074,0.8063,0.8075,0.8076,0.8086,0.8087,0.8091,0.8096,0.8097,0.8101,0.8101,0.8102,0.8102,0,0,0,0,0,0,0,0.8018,0.802,0.8039,0.8041,0.8043,0.8049,0.8051,0.8055,0.8072,0.8064,0.8066,0.8068,0.8087,0.809,0.8091,0.8097,0.8101,0.8101,0.8102,0.8102,0.8101,0.8101,0,0,0,0,0,0,0.8015,0.8019,0.8038,0.8039,0.8032,0.8049,0.8052,0.8055,0.8072,0.8075,0.8068,0.8069,0.8089,0.8091,0.8092,0.8089,0.8102,0.8102,0.8102,0.8101,0.8101,0.81,0,0,0,0,0,0,0.8014,0.8016,0.8037,0.803,0.8033,0.8049,0.8052,0.8055,0.8059,0.8075,0.8078,0.8068,0.8089,0.8092,0.8094,0.809,0.8102,0.8103,0.8102,0.8101,0.8101,0.8081,0,0,0,0,0,0,0.8013,0.8016,0.8014,0.8029,0.8033,0.8038,0.8052,0.8056,0.806,0.8062,0.8076,0.8079,0.809,0.8093,0.8095,0.8091,0.8103,0.8102,0.8101,0.8101,0.8082,0.808,0.8078,0,0,0,0,0,0.8012,0.8007,0.8014,0.8016,0.8031,0.8038,0.804,0.8053,0.8059,0.8058,0.8068,0.8078,0.809,0.8093,0.8095,0.8091,0.8102,0.8102,0.8101,0.8083,0.8081,0.8078,0,0,0,0,0,0,0.7991,0.801,0.8017,0.8017,0.8026,0.8041,0.804,0.8049,0.8056,0.8058,0.8074,0.8077,0.8078,0.8085,0.8088,0.8089,0.8098,0.8097,0.8084,0.8081,0.8079,0.8078,0.8104,0,0,0,0,0,0.7986,0.799,0.8006,0.8004,0.8009,0.8023,0.8027,0.8036,0.8046,0.805,0.806,0.8069,0.8075,0.8079,0.8085,0.8084,0.8087,0.8082,0.808,0.8078,0.8078,0.8079,0.8077,0.8098,0.8098,0.8098,0,0,0.7976,0.7987,0.7988,0.8,0.8008,0.8012,0.8026,0.803,0.8033,0.805,0.8054,0.8062,0.8073,0.8074,0.8075,0.808,0.8073,0.8077,0.8076,0.8076,0.8078,0.8076,0.8074,0.8097,0.8097,0.8097,0,0,0.796,0.7968,0.7968,0.7976,0.7988,0.7999,0.7999,0.8013,0.8019,0.8023,0.8037,0.8041,0.805,0.8058,0.8063,0.8052,0.8061,0.8053,0.8042,0.8043,0.8042,0.804,0.8037,0.8035,0.8053,0.8053,0.8053,0,0.7946,0.7953,0.7967,0.797,0.7975,0.7992,0.7992,0.7999,0.8012,0.8016,0.8021,0.8035,0.8043,0.8047,0.8044,0.8047,0.8048,0.8052,0.8041,0.8039,0.8038,0.8035,0.8034,0.8052,0.8052,0.8052,0.8052,0,0.7936,0.794,0.7939,0.7952,0.7957,0.7958,0.7973,0.7977,0.7986,0.7996,0.8,0.8011,0.802,0.8022,0.803,0.8027,0.803,0.8038,0.8047,0.8035,0.8033,0.8031,0.805,0.805,0.8051,0.8051,0,0,0.7906,0.7928,0.7927,0.7934,0.7949,0.7953,0.7955,0.7965,0.7968,0.7977,0.798,0.7988,0.7996,0.8002,0.8012,0.8012,0.8004,0.802,0.8021,0.8017,0.8001,0.7996,0.7994,0.801,0.801,0.801,0.8001,0,0.7893,0.7899,0.7913,0.7914,0.7919,0.7935,0.7938,0.7947,0.7957,0.7962,0.7973,0.7979,0.7988,0.7992,0.7993,0.8004,0.8001,0.8005,0.8014,0.8014,0.8011,0.7993,0.7986,0.7977,0.8,0.8,0.7999,0,0.7879,0.7887,0.789,0.7906,0.7908,0.791,0.792,0.7925,0.7937,0.7944,0.7951,0.7962,0.7966,0.7975,0.7982,0.7985,0.7989,0.7995,0.7995,0.7996,0.8006,0.7994,0.7974,0.7973,0.7998,0.7998,0.7998,0,0.7858,0.787,0.7873,0.7878,0.7897,0.7898,0.7906,0.7918,0.7923,0.7932,0.7936,0.7945,0.795,0.7957,0.7971,0.7976,0.7976,0.7986,0.7982,0.7982,0.7982,0.7981,0.7963,0.7984,0.7984,0.7984,0.7984,0,0.7842,0.7843,0.7864,0.7866,0.7868,0.7884,0.7885,0.7895,0.7905,0.791,0.7924,0.7928,0.7946,0.7952,0.7962,0.7967,0.7969,0.7975,0.7978,0.7974,0.7973,0.7977,0.7978,0.7983,0.7983,0.7983,0.7984,0,0.7819,0.7833,0.7838,0.7855,0.786,0.786,0.7875,0.7878,0.7889,0.7894,0.7897,0.7913,0.7921,0.7936,0.7947,0.7955,0.7957,0.7962,0.7953,0.7955,0.7951,0.7951,0.7934,0.7933,0.7954,0.7954,0.7954,0,0.7808,0.781,0.7827,0.7832,0.7839,0.7845,0.7851,0.7867,0.7872,0.7886,0.7887,0.7897,0.7905,0.7917,0.793,0.794,0.7945,0.7938,0.7946,0.7943,0.7946,0.7946,0.7946,0.7937,0.7936,0.7936,0.7936,0,0.7788,0.7795,0.7803,0.7813,0.782,0.7828,0.7838,0.784,0.7859,0.7864,0.7872,0.7879,0.7892,0.7901,0.7912,0.7921,0.7931,0.7933,0.7933,0.7929,0.7924,0.7928,0.7949,0.7933,0.7934,0.7934,0.7934,0.7934,0.7772,0.7774,0.7787,0.7795,0.7804,0.7813,0.7817,0.7828,0.7836,0.7847,0.7856,0.7864,0.7877,0.7894,0.7902,0.7908,0.7913,0.7913,0.7913,0.7913,0.7911,0.7923,0.7911,0.7911,0.7911,0.7911,0.7911,0,0.7753,0.7762,0.7769,0.7783,0.7789,0.7799,0.781,0.7815,0.7822,0.7833,0.7842,0.7852,0.7861,0.7876,0.7886,0.7889,0.7894,0.7891,0.7891,0.7893,0.7906,0.7905,0.7887,0.7887,0.7887,0.7887,0.7887,0.7887,0.7744,0.7748,0.7757,0.7767,0.7776,0.7785,0.779,0.7799,0.7808,0.7819,0.7827,0.7836,0.7849,0.786,0.787,0.7874,0.7877,0.7873,0.7878,0.789,0.7892,0.7894,0.7894,0.7873,0.7873,0.7865,0.7865,0.7865]}]]